Location: Unspecified
(0.0000°N, 0.0000°E)
Time: 00:11:15
(UTC+00:00)

Traac - Pass Details

Date: 18 December 2025
Orbit: 951 x 1102 km, 32.4° (Epoch: 19 January)

Event Time Altitude Azimuth Distance (km) Brightness Sun altitude
Exits shadow 04:30:37 28° 322° (NW) 1,873 9.0 -19.6°
Maximum altitude 04:34:30 65° 35° (NE) 1,173 8.4 -18.8°
Drops below altitude 10° 04:41:39 10° 115° (ESE) 2,939 11.8 -17.1°
Sets 04:44:27 0° 118° (ESE) 3,905 13.0 -16.5°
